THORAD DELTA 1 DEB, 14475

Orbit data source: Space-Track

THORAD DELTA 1 DEB, 14475 is space debris in SSO originally from a launch on Fri, 15 Nov 1974 UTC launched from the Air Force Western Test Range (AFWTR). Debris objects in space refer to the collection of defunct objects orbiting the Earth. Examples of debris include non-operational satellites, rocket bodies, and fragments generated from explosions, collisions, or faulty payload assembly.

Loading next visibility...
Identifier
14475, 1974-089ER
Orbit
SSO
Country
Flag of USUS
Related business
Manufacturer
Unknown
Mission
Spacecraft
Bus & Motor
Unknown
Mass
Unknown
Launch date (UTC)
1974-11-15 (51 years ago)
Launch vehicle
Unknown
Launch site
Air Force Western Test Range (AFWTR)
Object type
Payload
Rocket body
Debris
Shape & HBR
Unknown shape, 0.1 m
Radar Cross Section
Small (<0.1 m²)

Expand to show TLE details & history
Last TLE update: 2 days ago

TLE from 2 days ago
0 THORAD DELTA 1 DEB
1 14475U 74089ER  25351.91446689  .00000364  00000-0  22580-2 0  9994
2 14475 101.0562 149.5836 0131600 192.7778 322.9761 12.60060740959173
Epoch: 2025-12-17T21:56Z
TLE epoch observation values (Epoch: 2025-12-17T21:56:49.939Z)
Latitude
24.69503°
Longitude
-81.27263°
Altitude
1,343.942 km
Speed
7.225 km/s
True Right ascension
22h 18m 51s
True Declination
24° 34' 29"
Sunlit
Object was in daylight at epoch
Visualization orbit readout
Latitude
Unknown
Longitude
Unknown
Altitude
Unknown
Speed
Unknown
Apparent Right ascension
Unknown
Apparent Declination
Unknown
Sunlit
N/A
Visualization observer readout
Local Sidereal Time
01:25:04
Azimuth
Unknown
Elevation
Unknown
Doppler factor
Unknown
Orbital elements
Apogee altitude
1,522.813 km
Perigee altitude
1,317.561 km
Semi-major axis
7,798.324 km
Eccentricity
0.01316
Inclination
101.0562°
RAAN
149.5836°
Arg. of periapsis
192.7778°
True anomaly
322.05601°
Mean anomaly
322.9761°
Eccentric anomaly
322.51727°
Mean motion
3.15167 °/min
Orbital period
114.23 mins
BSTAR
0.002258
Loading maneuver chart data...
Computing Atmospheric mass density...

Documentation

Showing up to 5 results
|